TimeEST,TemperatureF,Dew PointF,Humidity,Sea Level PressureIn,VisibilityMPH,Wind Direction,Wind SpeedMPH,Gust SpeedMPH,PrecipitationIn,Events,Conditions,WindDirDegrees,DateUTC
12:53 AM,24.1,8.1,51,30.06,10.0,SSE,6.9,-,N/A,,Clear,160,2013-02-19 05:53:00
1:53 AM,25.0,8.1,49,30.04,10.0,SSE,8.1,-,N/A,,Clear,160,2013-02-19 06:53:00
2:53 AM,25.0,9.0,51,30.01,10.0,SSE,5.8,-,N/A,,Clear,160,2013-02-19 07:53:00
3:53 AM,25.0,9.0,51,29.99,10.0,SSE,6.9,-,N/A,,Clear,150,2013-02-19 08:53:00
4:53 AM,26.1,10.0,51,29.94,10.0,SSE,9.2,-,N/A,,Clear,150,2013-02-19 09:53:00
5:53 AM,27.0,10.9,51,29.90,10.0,SE,11.5,-,N/A,,Clear,140,2013-02-19 10:53:00
6:53 AM,28.0,12.9,53,29.88,10.0,SSE,11.5,-,N/A,,Clear,150,2013-02-19 11:53:00
7:53 AM,30.0,15.1,54,29.86,10.0,SSE,9.2,-,N/A,,Clear,160,2013-02-19 12:53:00
8:53 AM,32.0,17.1,54,29.85,10.0,South,9.2,-,N/A,,Overcast,170,2013-02-19 13:53:00
9:53 AM,34.0,19.0,54,29.79,10.0,South,11.5,-,N/A,,Mostly Cloudy,190,2013-02-19 14:53:00
10:45 AM,33.8,21.2,60,29.74,2.5,South,18.4,23.0,0.00,Snow,Light Snow,190,2013-02-19 15:45:00
10:53 AM,33.1,21.9,64,29.79,2.5,South,16.1,23.0,0.00,Snow,Light Snow,190,2013-02-19 15:53:00
11:28 AM,32.0,24.8,75,29.72,1.2,South,13.8,18.4,0.01,Snow,Light Snow,180,2013-02-19 16:28:00
11:39 AM,32.0,26.6,80,29.72,0.8,South,12.7,18.4,0.02,Snow,Light Snow,190,2013-02-19 16:39:00
11:53 AM,30.9,27.0,85,29.77,0.8,South,11.5,21.9,0.03,Snow,Light Snow,170,2013-02-19 16:53:00
12:01 PM,30.2,28.4,93,29.71,0.8,South,11.5,18.4,0.01,Snow,Light Snow,180,2013-02-19 17:01:00
12:34 PM,30.2,28.4,93,29.69,0.8,South,12.7,-,0.03,Snow,Light Snow,180,2013-02-19 17:34:00
12:55 PM,30.2,28.4,93,29.68,1.0,South,8.1,-,0.00,Snow,Light Snow,170,2013-02-19 17:55:00
1:06 PM,30.2,28.4,93,29.67,0.8,South,11.5,19.6,0.01,Snow,Light Snow,170,2013-02-19 18:06:00
1:40 PM,32.0,28.4,87,29.65,1.5,South,10.4,-,0.03,Snow,Light Snow,170,2013-02-19 18:40:00
1:53 PM,32.0,28.9,88,29.70,0.8,South,9.2,-,0.03,Snow,Light Snow,170,2013-02-19 18:53:00
2:53 PM,30.9,28.9,92,29.67,0.8,South,10.4,-,0.05,Snow,Light Snow,170,2013-02-19 19:53:00
3:53 PM,32.0,30.0,92,29.65,0.8,SSE,6.9,-,0.01,,Overcast,160,2013-02-19 20:53:00
4:04 PM,32.0,30.2,93,29.60,9.0,South,6.9,-,N/A,,Overcast,180,2013-02-19 21:04:00
4:53 PM,33.1,30.0,89,29.65,2.0,South,10.4,-,0.00,Snow,Light Snow,190,2013-02-19 21:53:00
5:14 PM,33.8,30.2,87,29.60,8.0,SSW,8.1,-,0.01,Snow,Light Snow,200,2013-02-19 22:14:00
5:53 PM,33.1,30.0,89,29.66,10.0,SSW,9.2,-,0.01,,Overcast,200,2013-02-19 22:53:00
6:26 PM,33.8,30.2,87,29.61,10.0,SSW,10.4,-,N/A,,Overcast,210,2013-02-19 23:26:00
7:53 PM,33.1,30.0,89,29.67,9.0,WSW,10.4,-,0.00,Snow,Light Snow,250,2013-02-20 00:53:00
8:06 PM,33.8,30.2,87,29.63,7.0,West,9.2,-,0.00,Snow,Light Snow,280,2013-02-20 01:06:00
8:16 PM,32.0,28.4,87,29.63,1.8,WNW,8.1,-,0.00,Snow,Light Snow,300,2013-02-20 01:16:00
8:23 PM,30.2,28.4,93,29.63,0.8,NW,9.2,-,0.02,Snow,Light Snow,310,2013-02-20 01:23:00
8:53 PM,30.0,27.0,88,29.69,0.8,WNW,8.1,-,0.07,Snow,Light Snow,300,2013-02-20 01:53:00
9:15 PM,28.4,26.6,93,29.65,0.8,WNW,12.7,27.6,0.05,Snow,Light Snow,290,2013-02-20 02:15:00
9:19 PM,28.4,24.8,86,29.65,2.0,West,10.4,20.7,0.05,Snow,Light Snow,280,2013-02-20 02:19:00
9:26 PM,28.4,26.6,93,29.65,9.0,West,10.4,-,0.05,,Overcast,280,2013-02-20 02:26:00
9:40 PM,28.4,21.2,74,29.65,10.0,West,12.7,-,0.05,,Overcast,260,2013-02-20 02:40:00
9:48 PM,28.4,21.2,74,29.65,10.0,West,11.5,-,0.05,,Overcast,270,2013-02-20 02:48:00
9:53 PM,28.9,21.0,72,29.70,10.0,WNW,6.9,-,0.05,,Overcast,290,2013-02-20 02:53:00
10:53 PM,28.0,19.0,69,29.70,10.0,West,16.1,21.9,N/A,,Overcast,260,2013-02-20 03:53:00
11:17 PM,26.6,19.4,74,29.66,2.0,WNW,10.4,31.1,0.00,Snow,Light Snow,300,2013-02-20 04:17:00
11:25 PM,26.6,19.4,74,29.66,9.0,WNW,8.1,17.3,0.00,Snow,Light Snow,290,2013-02-20 04:25:00
11:53 PM,26.1,16.0,66,29.72,10.0,West,11.5,21.9,0.00,,Overcast,280,2013-02-20 04:53:00